| time (UTC) | temp F | wind direction | speed knots | gust knots | rain 1hr in | rain 24hr in | rain mn in | humidity % | barometer mb |
| 20260906080026 | 78 | 175 | 3.5 | 7.0 | 0.00 | 0.00 | 0.00 | 65 | 1017.5 |
| 20260906074545 | 78 | 174 | 3.5 | 8.7 | 0.00 | 0.00 | 0.00 | 64 | 1017.3 |
| 20260906073005 | 78 | 214 | 2.6 | 5.2 | 0.00 | 0.00 | 0.00 | 64 | 1017.2 |
| 20260906071537 | 79 | 246 | 1.7 | 2.6 | 0.00 | 0.00 | 0.00 | 62 | 1017.3 |
| 20260906070001 | 80 | 5 | 0.0 | 1.7 | 0.00 | 0.00 | 0.00 | 60 | 1017.2 |
| 20260906064531 | 78 | 19 | 0.9 | 2.6 | 0.00 | 0.00 | 0.00 | 61 | 1017.1 |
| 20260906063059 | 77 | 24 | 0.0 | 2.6 | 0.00 | 0.00 | 0.00 | 68 | 1017.1 |
| 20260906061527 | 74 | 22 | 0.0 | 2.6 | 0.00 | 0.00 | 0.00 | 71 | 1017.0 |
| 20260906060130 | 73 | 22 | 0.0 | 0.0 | 0.00 | 0.00 | 0.00 | 76 | 1016.8 |
| 20260906054519 | 73 | 22 | 0.0 | 0.0 | 0.00 | 0.00 | 0.00 | 75 | 1016.7 |
| 20260906053049 | 73 | 22 | 0.0 | 0.0 | 0.00 | 0.00 | 0.00 | 70 | 1016.5 |
| 20260906051606 | 73 | 22 | 0.0 | 0.0 | 0.00 | 0.00 | 0.00 | 69 | 1016.5 |
| 20260906050029 | 72 | 22 | 0.9 | 2.6 | 0.00 | 0.00 | 0.00 | 68 | 1016.5 |
| 20260906044545 | 72 | 22 | 1.7 | 2.6 | 0.00 | 0.00 | 0.00 | 71 | 1016.3 |
| 20260906043012 | 72 | 22 | 1.7 | 3.5 | 0.00 | 0.00 | 0.00 | 71 | 1016.4 |
| 20260906041545 | 72 | 19 | 1.7 | 4.3 | 0.00 | 0.00 | 0.00 | 71 | 1016.4 |
| 20260906040017 | 72 | 19 | 2.6 | 7.0 | 0.00 | 0.00 | 0.00 | 71 | 1016.3 |
| 20260906034541 | 73 | 14 | 2.6 | 5.2 | 0.00 | 0.00 | 0.00 | 71 | 1016.1 |
| 20260906033051 | 73 | 19 | 3.5 | 5.2 | 0.00 | 0.00 | 0.00 | 70 | 1016.1 |
| 20260906031532 | 73 | 26 | 2.6 | 4.3 | 0.00 | 0.00 | 0.00 | 70 | 1016.1 |
| 20260906030031 | 73 | 17 | 2.6 | 4.3 | 0.00 | 0.00 | 0.00 | 68 | 1016.1 |
| 20260906024605 | 74 | 29 | 2.6 | 3.5 | 0.00 | 0.00 | 0.00 | 66 | 1016.2 |
| 20260906023024 | 74 | 28 | 2.6 | 4.3 | 0.00 | 0.00 | 0.00 | 65 | 1016.2 |
| 20260906021557 | 75 | 28 | 0.0 | 0.9 | 0.00 | 0.00 | 0.00 | 69 | 1016.2 |
| 20260906020006 | 75 | 28 | 1.7 | 4.3 | 0.00 | 0.00 | 0.00 | 68 | 1016.3 |
| 20260906014538 | 75 | 44 | 2.6 | 4.3 | 0.00 | 0.00 | 0.00 | 64 | 1016.2 |
| 20260906013051 | 74 | 22 | 2.6 | 7.8 | 0.00 | 0.00 | 0.00 | 66 | 1016.2 |
| 20260906011518 | 74 | 38 | 3.5 | 8.7 | 0.00 | 0.00 | 0.00 | 67 | 1016.2 |
| 20260906010048 | 74 | 22 | 2.6 | 7.8 | 0.00 | 0.00 | 0.00 | 66 | 1016.2 |
| 20260906004514 | 74 | 26 | 2.6 | 4.3 | 0.00 | 0.00 | 0.00 | 66 | 1016.2 |
| 20260906003047 | 75 | 355 | 3.5 | 8.7 | 0.00 | 0.00 | 0.00 | 68 | 1016.4 |
| 20260906001556 | 75 | 26 | 4.3 | 9.6 | 0.00 | 0.00 | 0.00 | 67 | 1016.5 |
| 20260906000023 | 76 | 19 | 3.5 | 7.8 | 0.00 | 0.00 | 0.00 | 66 | 1016.5 |
| 20260905234557 | 76 | 17 | 2.6 | 7.0 | 0.00 | 0.00 | 0.00 | 68 | 1016.5 |
| 20260905233021 | 76 | 336 | 3.5 | 7.8 | 0.00 | 0.00 | 0.00 | 65 | 1016.6 |
| 20260905231551 | 75 | 350 | 0.9 | 2.6 | 0.00 | 0.00 | 0.00 | 60 | 1016.6 |
| 20260905230014 | 77 | 13 | 0.0 | 0.9 | 0.00 | 0.00 | 0.00 | 57 | 1016.6 |
| 20260905224548 | 78 | 10 | 1.7 | 5.2 | 0.00 | 0.00 | 0.00 | 56 | 1016.5 |
| 20260905223059 | 78 | 346 | 2.6 | 7.8 | 0.00 | 0.00 | 0.00 | 54 | 1016.6 |
| 20260905221527 | 78 | 331 | 2.6 | 7.0 | 0.00 | 0.00 | 0.00 | 55 | 1016.6 |
| 20260905220056 | 77 | 312 | 1.7 | 7.0 | 0.00 | 0.00 | 0.00 | 57 | 1016.5 |
| 20260905214519 | 78 | 286 | 0.9 | 3.5 | 0.00 | 0.00 | 0.00 | 55 | 1016.4 |
| 20260905213047 | 77 | 333 | 0.9 | 7.0 | 0.00 | 0.00 | 0.00 | 56 | 1016.4 |
| 20260905211515 | 77 | 290 | 0.0 | 7.8 | 0.00 | 0.00 | 0.00 | 57 | 1016.5 |
| 20260905210050 | 76 | 24 | 0.9 | 7.0 | 0.00 | 0.00 | 0.00 | 59 | 1016.4 |
| 20260905204601 | 75 | 19 | 4.3 | 7.0 | 0.00 | 0.00 | 0.00 | 62 | 1016.3 |
| 20260905203023 | 75 | 13 | 3.5 | 5.2 | 0.00 | 0.00 | 0.00 | 64 | 1016.4 |
| 20260905201555 | 76 | 38 | 2.6 | 5.2 | 0.00 | 0.00 | 0.00 | 61 | 1016.3 |
| 20260905200020 | 76 | 5 | 0.0 | 2.6 | 0.00 | 0.00 | 0.00 | 63 | 1016.3 |
| 20260905194551 | 76 | 5 | 0.0 | 3.5 | 0.00 | 0.00 | 0.00 | 59 | 1016.4 |
| 20260905193015 | 76 | 10 | 2.6 | 7.0 | 0.00 | 0.00 | 0.00 | 58 | 1016.3 |
| 20260905191547 | 77 | 11 | 1.7 | 3.5 | 0.00 | 0.00 | 0.00 | 61 | 1016.1 |
| 20260905184532 | 79 | 222 | 1.7 | 4.3 | 0.00 | 0.00 | 0.00 | 62 | 1015.9 |
| 20260905183058 | 79 | 170 | 2.6 | 5.2 | 0.00 | 0.00 | 0.00 | 61 | 1015.7 |
| 20260905181526 | 81 | 208 | 0.9 | 7.8 | 0.00 | 0.00 | 0.00 | 55 | 1015.7 |
| 20260905180112 | 81 | 231 | 3.5 | 6.1 | 0.00 | 0.00 | 0.00 | 53 | 1015.7 |
| 20260905174506 | 82 | 263 | 0.9 | 5.2 | 0.00 | 0.00 | 0.00 | 51 | 1015.6 |
| 20260905173039 | 83 | 234 | 1.7 | 6.1 | 0.00 | 0.00 | 0.00 | 48 | 1015.5 |
| 20260905171502 | 84 | 252 | 2.6 | 6.1 | 0.00 | 0.00 | 0.00 | 46 | 1015.4 |
| 20260905170032 | 85 | 257 | 4.3 | 8.7 | 0.00 | 0.00 | 0.00 | 50 | 1015.4 |
| 20260905164550 | 85 | 242 | 5.2 | 9.6 | 0.00 | 0.00 | 0.00 | 47 | 1015.3 |
| 20260905163012 | 86 | 227 | 4.3 | 9.6 | 0.00 | 0.00 | 0.00 | 45 | 1015.4 |
| 20260905161545 | 86 | 231 | 3.5 | 8.7 | 0.00 | 0.00 | 0.00 | 45 | 1015.3 |
| 20260905154526 | 87 | 236 | 4.3 | 10.4 | 0.00 | 0.00 | 0.00 | 47 | 1015.4 |
| 20260905153053 | 87 | 242 | 4.3 | 13.0 | 0.00 | 0.00 | 0.00 | 47 | 1015.4 |
| 20260905151521 | 88 | 252 | 5.2 | 13.0 | 0.00 | 0.00 | 0.00 | 42 | 1015.4 |
| 20260905150049 | 86 | 178 | 8.7 | 12.2 | 0.00 | 0.00 | 0.00 | 52 | 1015.4 |
| 20260905144603 | 87 | 203 | 6.1 | 14.8 | 0.00 | 0.00 | 0.00 | 45 | 1015.4 |
| 20260905143025 | 87 | 184 | 8.7 | 14.8 | 0.00 | 0.00 | 0.00 | 43 | 1015.5 |
| 20260905141558 | 86 | 191 | 7.8 | 13.0 | 0.00 | 0.00 | 0.00 | 52 | 1015.6 |
| 20260905140021 | 86 | 183 | 7.8 | 13.9 | 0.00 | 0.00 | 0.00 | 53 | 1015.8 |
| 20260905134558 | 86 | 191 | 8.7 | 13.9 | 0.00 | 0.00 | 0.00 | 50 | 1015.8 |
| 20260905133020 | 87 | 148 | 7.8 | 13.9 | 0.00 | 0.00 | 0.00 | 48 | 1015.7 |
| 20260905131546 | 87 | 199 | 7.0 | 13.0 | 0.00 | 0.00 | 0.00 | 48 | 1015.8 |
| 20260905130010 | 87 | 180 | 7.8 | 12.2 | 0.00 | 0.00 | 0.00 | 47 | 1016.1 |
| 20260905124546 | 87 | 239 | 9.6 | 14.8 | 0.00 | 0.00 | 0.00 | 43 | 1016.0 |
| 20260905123102 | 87 | 165 | 7.0 | 15.6 | 0.00 | 0.00 | 0.00 | 43 | 1016.2 |
| 20260905121521 | 86 | 200 | 7.8 | 13.9 | 0.00 | 0.00 | 0.00 | 44 | 1016.3 |
| 20260905120100 | 86 | 175 | 7.8 | 13.0 | 0.00 | 0.00 | 0.00 | 45 | 1016.3 |
| 20260905114517 | 87 | 181 | 10.4 | 15.6 | 0.00 | 0.00 | 0.00 | 41 | 1016.2 |
| 20260905113054 | 88 | 185 | 7.0 | 12.2 | 0.00 | 0.00 | 0.00 | 34 | 1016.2 |
| 20260905111515 | 87 | 184 | 5.2 | 16.5 | 0.00 | 0.00 | 0.00 | 35 | 1016.2 |
| 20260905110040 | 88 | 188 | 7.0 | 11.3 | 0.00 | 0.00 | 0.00 | 39 | 1016.3 |
| 20260905104555 | 88 | 163 | 2.6 | 10.4 | 0.00 | 0.00 | 0.00 | 38 | 1016.3 |
| 20260905103026 | 87 | 226 | 6.1 | 13.0 | 0.00 | 0.00 | 0.00 | 40 | 1016.5 |
| 20260905101551 | 87 | 169 | 3.5 | 9.6 | 0.00 | 0.00 | 0.00 | 38 | 1016.5 |
| 20260905100015 | 86 | 140 | 4.3 | 10.4 | 0.00 | 0.00 | 0.00 | 36 | 1016.5 |
| 20260905094547 | 86 | 216 | 5.2 | 8.7 | 0.00 | 0.00 | 0.00 | 38 | 1016.6 |
| 20260905093121 | 85 | 194 | 4.3 | 8.7 | 0.00 | 0.00 | 0.00 | 44 | 1016.7 |
| 20260905091527 | 84 | 195 | 5.2 | 8.7 | 0.00 | 0.00 | 0.00 | 48 | 1016.6 |
| 20260905090057 | 83 | 213 | 2.6 | 8.7 | 0.00 | 0.00 | 0.00 | 50 | 1016.4 |
| 20260905084520 | 82 | 221 | 4.3 | 7.8 | 0.00 | 0.00 | 0.00 | 57 | 1016.4 |
| 20260905083047 | 81 | 204 | 2.6 | 7.0 | 0.00 | 0.00 | 0.00 | 63 | 1016.4 |
| 20260905081515 | 80 | 192 | 3.5 | 6.1 | 0.00 | 0.00 | 0.00 | 66 | 1016.3 |